RYR9YU LIRA-EPPO

Flight info

Callsign RYR9YU
Flight time 1h 52m
Altitude 38000
Route SOVAN DCT AMTEL DCT MALUG/N0435F370 DCT PINQI DCT ODLIV DCT RASAN DCT DIMEX P733 AKAPI
Aircraft B738/M-SDE3FGILRWY/SB1

Departure

Time 2026-04-26 13:05
Airport Ciampino–G. B. Pastine International Airport (LIRA)

Arrival

Time 2026-04-26 14:57
Airport Poznań-Ławica Airport (EPPO)
Time Latitude Longitude Altitude Speed Heading
2026-04-26 12:08 41.80096 12.59072 405 ft 0 kts 123°
2026-04-26 12:52 41.80097 12.59068 405 ft 3 kts 123°
2026-04-26 12:52 41.80115 12.59043 398 ft 4 kts 148°
2026-04-26 12:52 41.80132 12.59024 398 ft 2 kts 105°
2026-04-26 12:52 41.80134 12.58995 403 ft 4 kts 57°
2026-04-26 12:53 41.80117 12.58969 400 ft 4 kts 51°
2026-04-26 12:53 41.80103 12.58944 401 ft 4 kts 53°
2026-04-26 12:53 41.80086 12.58916 403 ft 3 kts 51°
2026-04-26 12:53 41.80084 12.58912 404 ft 0 kts 51°
2026-04-26 12:59 41.80085 12.58913 404 ft 0 kts 51°
2026-04-26 12:59 41.80085 12.58914 404 ft 0 kts 51°
2026-04-26 12:59 41.80087 12.58916 403 ft 1 kts 51°
2026-04-26 13:00 41.80100 12.58940 403 ft 5 kts 52°
2026-04-26 13:00 41.80133 12.58997 405 ft 10 kts 52°
2026-04-26 13:00 41.80174 12.59069 405 ft 8 kts 56°
2026-04-26 13:00 41.80149 12.59135 406 ft 11 kts 151°
2026-04-26 13:01 41.80071 12.59188 406 ft 15 kts 153°
2026-04-26 13:01 41.79968 12.59258 406 ft 19 kts 153°
2026-04-26 13:01 41.79842 12.59345 406 ft 22 kts 152°
2026-04-26 13:01 41.79695 12.59446 406 ft 25 kts 153°
2026-04-26 13:02 41.79528 12.59561 405 ft 28 kts 153°
2026-04-26 13:02 41.79353 12.59682 406 ft 20 kts 153°
2026-04-26 13:02 41.79231 12.59767 404 ft 20 kts 151°
2026-04-26 13:02 41.79117 12.59846 406 ft 16 kts 153°
2026-04-26 13:03 41.79035 12.59906 406 ft 12 kts 137°
2026-04-26 13:03 41.79043 12.60008 408 ft 12 kts 61°
2026-04-26 13:03 41.79082 12.60068 412 ft 8 kts 12°
2026-04-26 13:03 41.79110 12.60055 411 ft 0 kts 331°
2026-04-26 13:04 41.79112 12.60053 412 ft 1 kts 331°
2026-04-26 13:04 41.79119 12.60048 414 ft 3 kts 331°
2026-04-26 13:04 41.79356 12.59884 411 ft 81 kts 333°
2026-04-26 13:04 41.80092 12.59376 420 ft 153 kts 332°
2026-04-26 13:05 41.81128 12.58709 1111 ft 167 kts 329°
2026-04-26 13:05 41.82152 12.58025 2169 ft 170 kts 329°
2026-04-26 13:05 41.83313 12.57235 2688 ft 205 kts 331°
2026-04-26 13:05 41.84689 12.56308 3107 ft 231 kts 332°
2026-04-26 13:06 41.86183 12.55309 3674 ft 251 kts 332°
2026-04-26 13:06 41.87781 12.54240 4596 ft 258 kts 333°
2026-04-26 13:06 41.89398 12.53161 5747 ft 262 kts 334°
2026-04-26 13:06 41.91060 12.52052 6704 ft 268 kts 334°
2026-04-26 13:07 41.92744 12.50926 7690 ft 274 kts 334°
2026-04-26 13:07 41.94472 12.49770 8630 ft 280 kts 334°
2026-04-26 13:07 41.96226 12.48595 9659 ft 284 kts 334°
2026-04-26 13:07 41.98013 12.47398 10527 ft 292 kts 334°
2026-04-26 13:08 41.99919 12.46121 10864 ft 320 kts 333°
2026-04-26 13:08 42.01978 12.44739 11348 ft 338 kts 333°
2026-04-26 13:08 42.04093 12.43318 12294 ft 340 kts 333°
2026-04-26 13:08 42.06220 12.41889 13230 ft 344 kts 332°
2026-04-26 13:09 42.08383 12.40433 14056 ft 351 kts 331°
2026-04-26 13:09 42.10562 12.38965 14966 ft 351 kts 332°
2026-04-26 13:09 42.12751 12.37491 15875 ft 352 kts 332°
2026-04-26 13:09 42.14950 12.36008 16707 ft 356 kts 333°
2026-04-26 13:10 42.17187 12.34499 17447 ft 362 kts 333°
2026-04-26 13:10 42.19448 12.32973 18293 ft 364 kts 333°
2026-04-26 13:10 42.21721 12.31437 19011 ft 367 kts 333°
2026-04-26 13:10 42.24018 12.29884 19687 ft 371 kts 333°
2026-04-26 13:11 42.26340 12.28312 20331 ft 376 kts 333°
2026-04-26 13:11 42.28694 12.26718 20982 ft 380 kts 333°
2026-04-26 13:11 42.31069 12.25108 21630 ft 384 kts 333°
2026-04-26 13:11 42.33463 12.23483 22271 ft 388 kts 333°
2026-04-26 13:12 42.35888 12.21836 22879 ft 392 kts 333°
2026-04-26 13:12 42.38336 12.20172 23530 ft 395 kts 333°
2026-04-26 13:12 42.40788 12.18503 24166 ft 395 kts 333°
2026-04-26 13:12 42.43259 12.16820 24674 ft 400 kts 333°
2026-04-26 13:13 42.45759 12.15117 25137 ft 404 kts 333°
2026-04-26 13:13 42.48282 12.13395 25614 ft 408 kts 333°
2026-04-26 13:13 42.50831 12.11654 26103 ft 411 kts 333°
2026-04-26 13:13 42.53384 12.09909 26640 ft 412 kts 333°
2026-04-26 13:14 42.55941 12.08160 27213 ft 413 kts 332°
2026-04-26 13:14 42.58520 12.06393 27559 ft 419 kts 332°
2026-04-26 13:14 42.61104 12.04622 27979 ft 423 kts 332°
2026-04-26 13:14 42.63748 12.02808 28278 ft 429 kts 332°
2026-04-26 13:15 42.66426 12.00968 28677 ft 433 kts 332°
2026-04-26 13:15 42.69153 11.99094 29145 ft 435 kts 332°
2026-04-26 13:15 42.71862 11.97230 29554 ft 438 kts 332°
2026-04-26 13:15 42.73665 11.95988 29803 ft 441 kts 332°
2026-04-26 13:16 42.77346 11.93451 30259 ft 445 kts 332°
2026-04-26 13:16 42.80114 11.91541 30574 ft 448 kts 332°
2026-04-26 13:16 42.82859 11.89646 30954 ft 448 kts 332°
2026-04-26 13:16 42.85628 11.87699 31399 ft 447 kts 330°
2026-04-26 13:17 42.91084 11.83705 32378 ft 443 kts 330°
2026-04-26 13:17 42.93785 11.81708 32841 ft 441 kts 330°
2026-04-26 13:18 42.99173 11.77734 33761 ft 439 kts 329°
2026-04-26 13:18 43.01856 11.75761 34217 ft 437 kts 329°
2026-04-26 13:18 43.07202 11.71828 34936 ft 436 kts 329°
2026-04-26 13:19 43.09875 11.69859 35244 ft 436 kts 329°
2026-04-26 13:19 43.12548 11.67888 35587 ft 436 kts 329°
2026-04-26 13:19 43.15212 11.65922 35918 ft 436 kts 329°
2026-04-26 13:19 43.17885 11.63950 36241 ft 436 kts 330°
2026-04-26 13:20 43.20706 11.62401 36525 ft 440 kts 343°
2026-04-26 13:20 43.23735 11.61761 36864 ft 443 kts 355°
2026-04-26 13:20 43.26818 11.61984 37191 ft 446 kts
2026-04-26 13:20 43.29869 11.62764 37490 ft 447 kts
2026-04-26 13:21 43.32914 11.63621 37784 ft 447 kts
2026-04-26 13:21 43.34929 11.64202 37975 ft 447 kts
2026-04-26 13:21 43.39001 11.65370 38401 ft 446 kts
2026-04-26 13:21 43.42044 11.66226 38702 ft 446 kts
2026-04-26 13:22 43.45081 11.67065 38946 ft 446 kts
2026-04-26 13:22 43.48130 11.67897 39177 ft 446 kts
2026-04-26 13:22 43.51164 11.68718 39422 ft 444 kts
2026-04-26 13:22 43.54202 11.69537 39623 ft 445 kts
2026-04-26 13:23 43.57246 11.70357 39731 ft 447 kts
2026-04-26 13:23 43.63397 11.72015 39957 ft 452 kts
2026-04-26 13:23 43.66449 11.72840 40071 ft 454 kts
2026-04-26 13:24 43.69592 11.73691 40185 ft 456 kts
2026-04-26 13:24 43.72707 11.74536 40319 ft 456 kts
2026-04-26 13:24 43.75788 11.75373 40416 ft 458 kts
2026-04-26 13:25 43.82064 11.77081 40606 ft 461 kts
2026-04-26 13:25 43.88391 11.78806 40745 ft 464 kts
2026-04-26 13:26 43.94737 11.80540 40878 ft 466 kts
2026-04-26 13:26 44.01103 11.82283 41070 ft 466 kts
2026-04-26 13:27 44.07470 11.84030 41098 ft 467 kts
2026-04-26 13:27 44.13856 11.85786 41109 ft 468 kts
2026-04-26 13:28 44.20260 11.87551 41102 ft 469 kts
2026-04-26 13:28 44.26673 11.89322 41101 ft 470 kts
2026-04-26 13:29 44.33084 11.91097 41085 ft 470 kts
2026-04-26 13:29 44.39497 11.92877 41089 ft 469 kts
2026-04-26 13:30 44.45902 11.94657 41088 ft 469 kts
2026-04-26 13:30 44.52310 11.96443 41086 ft 469 kts
2026-04-26 13:31 44.58677 11.98221 41090 ft 469 kts
2026-04-26 13:31 44.65074 12.00012 41071 ft 469 kts
2026-04-26 13:32 44.71477 12.01809 41080 ft 469 kts
2026-04-26 13:32 44.77870 12.03606 41083 ft 469 kts
2026-04-26 13:33 44.84298 12.05417 40745 ft 473 kts
2026-04-26 13:33 44.87504 12.06322 40496 ft 467 kts
2026-04-26 13:33 44.90668 12.07219 40241 ft 460 kts
2026-04-26 13:33 44.93781 12.08102 39998 ft 453 kts
2026-04-26 13:34 44.96852 12.08974 39752 ft 447 kts
2026-04-26 13:34 44.99885 12.09834 39520 ft 443 kts
2026-04-26 13:34 45.02898 12.10689 39285 ft 440 kts
2026-04-26 13:35 45.08884 12.12389 39102 ft 439 kts
2026-04-26 13:35 45.14899 12.14099 39104 ft 444 kts
2026-04-26 13:36 45.20964 12.15829 39095 ft 445 kts
2026-04-26 13:36 45.27034 12.17567 39092 ft 445 kts
2026-04-26 13:37 45.33101 12.19308 39103 ft 444 kts
2026-04-26 13:37 45.39151 12.21048 39099 ft 444 kts
2026-04-26 13:38 45.45197 12.22789 39106 ft 443 kts
2026-04-26 13:38 45.50216 12.24238 39097 ft 443 kts
2026-04-26 13:39 45.56250 12.25983 39109 ft 442 kts
2026-04-26 13:39 45.62279 12.27730 39107 ft 442 kts
2026-04-26 13:40 45.68300 12.29479 39100 ft 441 kts
2026-04-26 13:40 45.74319 12.31231 39098 ft 441 kts
2026-04-26 13:41 45.80337 12.32987 39086 ft 441 kts
2026-04-26 13:41 45.86361 12.34749 39092 ft 441 kts
2026-04-26 13:42 45.92377 12.36512 39105 ft 441 kts
2026-04-26 13:42 45.98394 12.38279 39099 ft 442 kts
2026-04-26 13:43 46.04420 12.40052 39093 ft 442 kts
2026-04-26 13:43 46.10411 12.41820 39099 ft 443 kts
2026-04-26 13:44 46.16443 12.43604 39105 ft 443 kts
2026-04-26 13:44 46.22487 12.45395 39109 ft 443 kts
2026-04-26 13:45 46.28524 12.47187 39121 ft 442 kts
2026-04-26 13:45 46.34568 12.48981 39122 ft 444 kts
2026-04-26 13:46 46.40630 12.50791 39096 ft 444 kts
2026-04-26 13:46 46.46678 12.52603 39107 ft 443 kts
2026-04-26 13:47 46.52716 12.54428 39120 ft 443 kts
2026-04-26 13:47 46.58748 12.56234 39140 ft 443 kts
2026-04-26 13:48 46.64790 12.58044 39135 ft 444 kts
2026-04-26 13:48 46.70819 12.59997 39142 ft 445 kts 15°
2026-04-26 13:49 46.76539 12.63565 39147 ft 448 kts 22°
2026-04-26 13:49 46.82169 12.67462 39124 ft 448 kts 22°
2026-04-26 13:50 46.87804 12.71337 39136 ft 448 kts 22°
2026-04-26 13:50 46.93448 12.75172 39130 ft 447 kts 22°
2026-04-26 13:51 46.99091 12.78992 39144 ft 447 kts 22°
2026-04-26 13:51 47.04730 12.82815 39135 ft 446 kts 22°
2026-04-26 13:52 47.10357 12.86640 39166 ft 446 kts 22°
2026-04-26 13:52 47.15980 12.90472 39171 ft 446 kts 22°
2026-04-26 13:53 47.21606 12.94316 39165 ft 445 kts 22°
2026-04-26 13:53 47.27214 12.98157 39170 ft 445 kts 22°
2026-04-26 13:54 47.32785 13.01980 39178 ft 445 kts 22°
2026-04-26 13:54 47.38407 13.05849 39173 ft 446 kts 22°
2026-04-26 13:55 47.45922 13.11035 39175 ft 446 kts 22°
2026-04-26 13:56 47.55246 13.17497 39201 ft 444 kts 22°
2026-04-26 13:56 47.60833 13.21409 39195 ft 444 kts 22°
2026-04-26 13:57 47.66435 13.25286 39195 ft 445 kts 22°
2026-04-26 13:57 47.72043 13.29185 39211 ft 446 kts 22°
2026-04-26 13:58 47.77660 13.33112 39209 ft 446 kts 22°
2026-04-26 13:58 47.83286 13.37058 39202 ft 446 kts 22°
2026-04-26 13:59 47.88880 13.40990 39208 ft 446 kts 22°
2026-04-26 13:59 47.94496 13.44947 39203 ft 446 kts 22°
2026-04-26 14:00 48.05727 13.52889 39209 ft 447 kts 22°
2026-04-26 14:01 48.11342 13.56875 39212 ft 447 kts 22°
2026-04-26 14:01 48.16963 13.60874 39215 ft 447 kts 22°
2026-04-26 14:02 48.22584 13.64884 39202 ft 448 kts 22°
2026-04-26 14:02 48.28206 13.68903 39214 ft 448 kts 22°
2026-04-26 14:03 48.33833 13.72936 39201 ft 448 kts 22°
2026-04-26 14:03 48.39454 13.76975 39209 ft 448 kts 22°
2026-04-26 14:04 48.45041 13.80999 39209 ft 448 kts 22°
2026-04-26 14:04 48.50665 13.85060 39211 ft 448 kts 22°
2026-04-26 14:05 48.56291 13.89133 39208 ft 448 kts 22°
2026-04-26 14:05 48.61909 13.93210 39210 ft 448 kts 22°
2026-04-26 14:06 48.67525 13.97295 39231 ft 448 kts 22°
2026-04-26 14:06 48.71366 13.99693 39218 ft 444 kts 15°
2026-04-26 14:07 48.78847 14.03187 39230 ft 443 kts 13°
2026-04-26 14:07 48.84750 14.05874 39225 ft 443 kts 13°
2026-04-26 14:08 48.90633 14.08632 39244 ft 442 kts 14°
2026-04-26 14:08 48.96507 14.11433 39245 ft 443 kts 14°
2026-04-26 14:09 49.02379 14.14251 39244 ft 443 kts 14°
2026-04-26 14:09 49.08254 14.17078 39243 ft 442 kts 14°
2026-04-26 14:10 49.14125 14.19908 39258 ft 442 kts 14°
2026-04-26 14:10 49.19996 14.22743 39254 ft 442 kts 14°
2026-04-26 14:11 49.28796 14.27007 39252 ft 443 kts 14°
2026-04-26 14:11 49.34663 14.29859 39271 ft 442 kts 14°
2026-04-26 14:12 49.40493 14.32699 39268 ft 442 kts 14°
2026-04-26 14:12 49.46395 14.35583 39258 ft 442 kts 14°
2026-04-26 14:13 49.55147 14.39871 39274 ft 442 kts 14°
2026-04-26 14:14 49.61000 14.42749 39268 ft 442 kts 14°
2026-04-26 14:14 49.66857 14.45635 39273 ft 441 kts 14°
2026-04-26 14:15 49.72705 14.48524 39272 ft 441 kts 14°
2026-04-26 14:15 49.78551 14.51420 39282 ft 441 kts 14°
2026-04-26 14:16 49.84398 14.54323 39281 ft 441 kts 14°
2026-04-26 14:16 49.90244 14.57234 39283 ft 441 kts 14°
2026-04-26 14:17 49.96075 14.60144 39283 ft 441 kts 14°
2026-04-26 14:17 50.01918 14.63068 39268 ft 441 kts 14°
2026-04-26 14:18 50.07756 14.65996 39267 ft 441 kts 14°
2026-04-26 14:18 50.13597 14.68934 39265 ft 441 kts 14°
2026-04-26 14:19 50.19439 14.71880 39270 ft 441 kts 14°
2026-04-26 14:19 50.25280 14.74833 39271 ft 441 kts 14°
2026-04-26 14:20 50.31118 14.77793 39276 ft 441 kts 14°
2026-04-26 14:20 50.36961 14.80762 39273 ft 441 kts 14°
2026-04-26 14:21 50.42806 14.83741 39281 ft 442 kts 14°
2026-04-26 14:21 50.48651 14.86725 39278 ft 442 kts 14°
2026-04-26 14:22 50.54544 14.89377 39278 ft 440 kts 11°
2026-04-26 14:22 50.57518 14.90604 38975 ft 445 kts 10°
2026-04-26 14:22 50.60510 14.91838 38438 ft 443 kts 11°
2026-04-26 14:22 50.63471 14.93079 38029 ft 438 kts 10°
2026-04-26 14:23 50.66392 14.94320 37621 ft 433 kts 10°
2026-04-26 14:23 50.69283 14.95561 37235 ft 428 kts 10°
2026-04-26 14:23 50.72136 14.96790 36854 ft 423 kts 10°
2026-04-26 14:23 50.74964 14.98013 36483 ft 419 kts 10°
2026-04-26 14:24 50.77762 14.99224 36111 ft 415 kts 10°
2026-04-26 14:24 50.80526 15.00420 35735 ft 410 kts 10°
2026-04-26 14:24 50.83263 15.01607 35364 ft 406 kts 10°
2026-04-26 14:24 50.85994 15.02790 35010 ft 409 kts
2026-04-26 14:25 50.88746 15.03981 34639 ft 412 kts
2026-04-26 14:25 50.91469 15.05166 34238 ft 409 kts
2026-04-26 14:25 50.94233 15.06371 33813 ft 406 kts
2026-04-26 14:25 50.96949 15.07557 33400 ft 402 kts
2026-04-26 14:26 50.99604 15.08957 33010 ft 405 kts 18°
2026-04-26 14:26 51.02071 15.11136 32649 ft 408 kts 29°
2026-04-26 14:26 51.04256 15.13954 32267 ft 412 kts 39°
2026-04-26 14:26 51.06263 15.17201 31931 ft 410 kts 40°
2026-04-26 14:27 51.08220 15.20487 31559 ft 408 kts 40°
2026-04-26 14:27 51.10153 15.23759 31200 ft 405 kts 40°
2026-04-26 14:27 51.12081 15.27013 30849 ft 402 kts 40°
2026-04-26 14:27 51.13999 15.30231 30504 ft 399 kts 40°
2026-04-26 14:28 51.15907 15.33418 30138 ft 396 kts 40°
2026-04-26 14:28 51.17805 15.36578 29743 ft 394 kts 39°
2026-04-26 14:28 51.19692 15.39716 29388 ft 390 kts 39°
2026-04-26 14:28 51.21565 15.42832 29013 ft 388 kts 39°
2026-04-26 14:29 51.23420 15.45920 28660 ft 384 kts 39°
2026-04-26 14:29 51.25264 15.48993 28299 ft 381 kts 39°
2026-04-26 14:29 51.27090 15.52037 27960 ft 379 kts 38°
2026-04-26 14:29 51.28892 15.55048 27602 ft 376 kts 38°
2026-04-26 14:30 51.30692 15.58058 27251 ft 373 kts 38°
2026-04-26 14:30 51.32471 15.61039 26902 ft 371 kts 38°
2026-04-26 14:30 51.34240 15.64004 26556 ft 369 kts 38°
2026-04-26 14:30 51.36006 15.66968 26211 ft 366 kts 38°
2026-04-26 14:31 51.37757 15.69911 25858 ft 364 kts 39°
2026-04-26 14:31 51.39498 15.72841 25514 ft 362 kts 39°
2026-04-26 14:31 51.41231 15.75759 25171 ft 360 kts 39°
2026-04-26 14:31 51.42952 15.78661 24829 ft 358 kts 39°
2026-04-26 14:32 51.44661 15.81547 24496 ft 356 kts 39°
2026-04-26 14:32 51.46364 15.84425 24156 ft 355 kts 38°
2026-04-26 14:32 51.48060 15.87294 23793 ft 353 kts 38°
2026-04-26 14:32 51.49745 15.90152 23390 ft 351 kts 38°
2026-04-26 14:33 51.51416 15.92988 23027 ft 349 kts 38°
2026-04-26 14:33 51.53078 15.95811 22670 ft 346 kts 38°
2026-04-26 14:33 51.54722 15.98608 22323 ft 343 kts 38°
2026-04-26 14:33 51.56356 16.01389 21986 ft 341 kts 38°
2026-04-26 14:34 51.57975 16.04147 21649 ft 338 kts 38°
2026-04-26 14:34 51.59584 16.06890 21316 ft 336 kts 38°
2026-04-26 14:34 51.61179 16.09615 20981 ft 334 kts 38°
2026-04-26 14:34 51.62768 16.12317 20653 ft 330 kts 37°
2026-04-26 14:35 51.64474 16.14712 20338 ft 321 kts 28°
2026-04-26 14:35 51.66261 16.16840 20015 ft 319 kts 26°
2026-04-26 14:35 51.68061 16.18915 19675 ft 317 kts 26°
2026-04-26 14:35 51.69848 16.20976 19347 ft 315 kts 26°
2026-04-26 14:36 51.71619 16.23036 19018 ft 314 kts 27°
2026-04-26 14:36 51.73381 16.25102 18699 ft 312 kts 27°
2026-04-26 14:36 51.75127 16.27163 18348 ft 311 kts 27°
2026-04-26 14:36 51.76843 16.29195 18000 ft 309 kts 27°
2026-04-26 14:37 51.78586 16.31267 17654 ft 307 kts 27°
2026-04-26 14:37 51.80276 16.33279 17333 ft 304 kts 27°
2026-04-26 14:37 51.81973 16.35303 16999 ft 302 kts 27°
2026-04-26 14:37 51.83659 16.37315 16681 ft 300 kts 27°
2026-04-26 14:38 51.85354 16.39339 16364 ft 298 kts 28°
2026-04-26 14:38 51.86996 16.41303 16081 ft 296 kts 27°
2026-04-26 14:38 51.88649 16.43281 15763 ft 295 kts 28°
2026-04-26 14:38 51.89767 16.44620 15541 ft 294 kts 28°
2026-04-26 14:39 51.91924 16.47271 15123 ft 297 kts 33°
2026-04-26 14:39 51.93246 16.49880 15004 ft 299 kts 45°
2026-04-26 14:39 51.94444 16.52617 14765 ft 297 kts 45°
2026-04-26 14:39 51.95635 16.55335 14476 ft 295 kts 45°
2026-04-26 14:40 51.96830 16.58045 14179 ft 295 kts 45°
2026-04-26 14:40 51.98030 16.60752 13816 ft 296 kts 45°
2026-04-26 14:40 51.99233 16.63457 13478 ft 295 kts 45°
2026-04-26 14:40 52.00435 16.66158 13166 ft 294 kts 45°
2026-04-26 14:41 52.01631 16.68844 12854 ft 293 kts 46°
2026-04-26 14:41 52.02824 16.71529 12547 ft 293 kts 46°
2026-04-26 14:41 52.04042 16.74159 12237 ft 287 kts 39°
2026-04-26 14:41 52.05564 16.76103 11962 ft 274 kts 26°
2026-04-26 14:42 52.07154 16.77774 11657 ft 270 kts 26°
2026-04-26 14:42 52.08724 16.79421 11370 ft 267 kts 26°
2026-04-26 14:42 52.09754 16.80508 11187 ft 265 kts 26°
2026-04-26 14:42 52.11291 16.82142 10900 ft 263 kts 27°
2026-04-26 14:43 52.12811 16.83768 10623 ft 261 kts 27°
2026-04-26 14:43 52.14321 16.85390 10341 ft 259 kts 27°
2026-04-26 14:43 52.15816 16.87000 10062 ft 257 kts 27°
2026-04-26 14:43 52.17299 16.88604 9758 ft 255 kts 28°
2026-04-26 14:44 52.18768 16.90194 9466 ft 253 kts 28°
2026-04-26 14:44 52.20227 16.91774 9191 ft 251 kts 28°
2026-04-26 14:44 52.21679 16.93347 9048 ft 251 kts 28°
2026-04-26 14:44 52.23141 16.94932 8854 ft 254 kts 28°
2026-04-26 14:45 52.24601 16.96518 8669 ft 250 kts 29°
2026-04-26 14:45 52.25551 16.97552 8538 ft 246 kts 28°
2026-04-26 14:45 52.27370 16.99740 8290 ft 244 kts 44°
2026-04-26 14:45 52.28131 17.02231 8132 ft 251 kts 73°
2026-04-26 14:46 52.28142 17.05082 7962 ft 256 kts 97°
2026-04-26 14:46 52.27657 17.07870 7782 ft 255 kts 104°
2026-04-26 14:46 52.27089 17.10615 7603 ft 255 kts 104°
2026-04-26 14:46 52.26525 17.13357 7412 ft 254 kts 104°
2026-04-26 14:47 52.25970 17.16114 7069 ft 260 kts 104°
2026-04-26 14:47 52.25409 17.18923 6795 ft 260 kts 104°
2026-04-26 14:47 52.24862 17.21673 6598 ft 257 kts 104°
2026-04-26 14:47 52.24314 17.24439 6358 ft 255 kts 105°
2026-04-26 14:48 52.23770 17.27180 6173 ft 252 kts 104°
2026-04-26 14:48 52.23348 17.29909 5966 ft 245 kts 88°
2026-04-26 14:48 52.23736 17.32467 5839 ft 227 kts 53°
2026-04-26 14:48 52.24766 17.34300 5665 ft 215 kts 33°
2026-04-26 14:49 52.26056 17.35408 5509 ft 208 kts 17°
2026-04-26 14:49 52.27427 17.36149 5369 ft 208 kts 14°
2026-04-26 14:49 52.28819 17.36852 5201 ft 210 kts 10°
2026-04-26 14:49 52.30218 17.36664 5034 ft 203 kts 330°
2026-04-26 14:50 52.31116 17.34948 4923 ft 203 kts 296°
2026-04-26 14:50 52.31694 17.32850 4753 ft 203 kts 298°
2026-04-26 14:50 52.32288 17.30749 4595 ft 204 kts 296°
2026-04-26 14:50 52.32854 17.28617 4458 ft 205 kts 297°
2026-04-26 14:51 52.33466 17.26498 4295 ft 206 kts 298°
2026-04-26 14:51 52.34056 17.24354 4140 ft 208 kts 295°
2026-04-26 14:51 52.34560 17.22143 3969 ft 206 kts 292°
2026-04-26 14:51 52.35005 17.19933 3823 ft 204 kts 291°
2026-04-26 14:52 52.35425 17.17734 3683 ft 202 kts 290°
2026-04-26 14:52 52.35838 17.15546 3537 ft 201 kts 290°
2026-04-26 14:52 52.36245 17.13399 3418 ft 193 kts 291°
2026-04-26 14:52 52.36629 17.11350 3281 ft 183 kts 291°
2026-04-26 14:53 52.36995 17.09405 3118 ft 174 kts 291°
2026-04-26 14:53 52.37344 17.07584 3018 ft 161 kts 291°
2026-04-26 14:53 52.37676 17.05846 3006 ft 160 kts 291°
2026-04-26 14:53 52.38001 17.04122 2872 ft 155 kts 292°
2026-04-26 14:54 52.38315 17.02472 2689 ft 150 kts 292°
2026-04-26 14:54 52.38627 17.00833 2467 ft 149 kts 293°
2026-04-26 14:54 52.38938 16.99200 2264 ft 149 kts 292°
2026-04-26 14:54 52.39240 16.97607 2053 ft 144 kts 292°
2026-04-26 14:55 52.39537 16.96051 1865 ft 141 kts 292°
2026-04-26 14:55 52.39821 16.94561 1657 ft 135 kts 293°
2026-04-26 14:55 52.40097 16.93118 1486 ft 133 kts 294°
2026-04-26 14:55 52.40380 16.91642 1293 ft 137 kts 292°
2026-04-26 14:56 52.40661 16.90167 1102 ft 136 kts 292°
2026-04-26 14:56 52.40947 16.88660 903 ft 144 kts 290°
2026-04-26 14:56 52.41243 16.87087 688 ft 145 kts 292°
2026-04-26 14:56 52.41541 16.85560 493 ft 137 kts 294°
2026-04-26 14:57 52.41819 16.84085 316 ft 134 kts 292°
2026-04-26 14:57 52.42079 16.82775 286 ft 100 kts 289°
2026-04-26 14:57 52.42227 16.81998 289 ft 44 kts 288°
2026-04-26 14:57 52.42292 16.81628 287 ft 31 kts 279°
2026-04-26 14:58 52.42293 16.81370 287 ft 21 kts 265°
2026-04-26 14:58 52.42277 16.81226 287 ft 10 kts 259°
2026-04-26 14:58 52.42249 16.81156 287 ft 7 kts 199°
2026-04-26 14:58 52.42208 16.81198 287 ft 7 kts 116°
2026-04-26 14:59 52.42192 16.81279 287 ft 7 kts 107°
2026-04-26 14:59 52.42176 16.81365 287 ft 9 kts 107°
2026-04-26 14:59 52.42155 16.81478 291 ft 12 kts 107°
2026-04-26 14:59 52.42137 16.81570 287 ft 14 kts 107°
2026-04-26 15:00 52.42094 16.81794 289 ft 17 kts 108°
2026-04-26 15:00 52.42056 16.81993 290 ft 19 kts 107°
2026-04-26 15:00 52.42015 16.82203 287 ft 19 kts 108°
2026-04-26 15:00 52.41974 16.82413 287 ft 20 kts 107°
2026-04-26 15:01 52.41933 16.82628 287 ft 19 kts 108°
2026-04-26 15:01 52.41896 16.82817 291 ft 13 kts 107°
2026-04-26 15:01 52.41837 16.82911 287 ft 14 kts 191°
2026-04-26 15:01 52.41738 16.82859 287 ft 16 kts 197°
2026-04-26 15:02 52.41660 16.82890 287 ft 12 kts 107°
2026-04-26 15:02 52.41643 16.83002 287 ft 11 kts 103°
2026-04-26 15:02 52.41614 16.83068 287 ft 7 kts 178°
2026-04-26 15:02 52.41583 16.83059 287 ft 2 kts 192°
2026-04-26 15:03 52.41573 16.83056 287 ft 1 kts 192°
2026-04-26 15:03 52.41570 16.83054 287 ft 0 kts 193°